Location: Unspecified
(0.0000°N, 0.0000°E)
Time: 18:53:13
(UTC+00:00)

N. Korean satellite - Pass Details

Date: 21 November 2017
Orbit: 460 x 514 km, 97.2° (Epoch: 20 November)

Event Time Altitude Azimuth Distance (km) Brightness Sun altitude
Rises 19:15:34 0° 204° (SSW) 2,481 10.9 -21.0°
Reaches altitude 10° 19:18:54 10° 240° (WSW) 1,604 10.3 -21.7°
Maximum altitude 19:20:00 11° 259° (W) 1,528 10.1 -22.0°
Drops below altitude 10° 19:21:07 10° 278° (W) 1,605 10.0 -22.2°
Sets 19:24:27 0° 314° (NW) 2,482 10.5 -23.0°
